Location: La Tine
(46.4708°N, 7.0525°E)
Time: 16:28:55
(UTC+00:00)

Terra - Pass Details

Date: 18 September 2020
Orbit: 701 x 703 km, 98.2° (Epoch: 29 October)

Event Time Altitude Azimuth Distance (km) Brightness Sun altitude
Exits shadow 20:18:54 18° 32° (NNE) 1,711 3.8 -27.0°
Drops below altitude 10° 20:20:44 10° 13° (NNE) 2,182 4.6 -27.3°
Sets 20:23:25 0° 359° (N) 3,105 5.7 -27.6°
